Location: Black Swamp Observatory
(41.3920°N, 84.1250°W)
Time: 11:28:01
(UTC-04:00)

Vanguard 2 - Pass Details

Date: 28 January 2022
Orbit: 552 x 2935 km, 32.9° (Epoch: 24 May)

Event Time Altitude Azimuth Distance (km) Brightness Sun altitude
Exits shadow 03:35:13 11° 179° (S) 5,637 11.7 -47.8°
Drops below altitude 10° 03:35:51 10° 177° (S) 5,719 11.8 -47.7°
Sets 03:41:49 0° 164° (SSE) 6,585 12.3 -46.6°
